Location: Stara Lesna
(49.1528°N, 20.2911°E)
Time: 05:32:36
(UTC+02:00)

MSX - Visible Passes

Search period start: 23 October 2020 00:00
Search period end: 01 November 2020 23:00
Orbit: 895 x 906 km, 98.8° (Epoch: 22 October)

Date Brightness Start Highest point End Pass type
(mag) Time Alt. Az. Time Alt. Az. Time Alt. Az.
23 Oct 4.8 03:30:55 10° NNE 03:35:59 43° E 03:35:59 43° E visible
23 Oct 4.4 05:12:50 10° N 05:18:01 36° WNW 05:19:02 33° W visible
24 Oct 4.7 03:33:36 10° NNE 03:38:36 44° E 03:38:36 44° E visible
24 Oct 4.4 05:15:35 10° N 05:20:42 34° WNW 05:21:38 32° W visible
25 Oct 4.7 02:36:18 10° NNE 02:41:11 46° ENE 02:41:11 46° ENE visible
25 Oct 4.5 04:18:21 10° N 04:23:24 33° WNW 04:24:14 31° WNW visible
26 Oct 4.7 02:39:00 10° NNE 02:43:48 47° ENE 02:43:48 47° ENE visible
26 Oct 4.5 04:21:07 10° N 04:26:06 32° WNW 04:26:51 31° WNW visible
27 Oct 4.6 02:41:42 10° NNE 02:46:24 48° ENE 02:46:24 48° ENE visible
27 Oct 4.6 04:23:52 10° N 04:28:48 30° WNW 04:29:27 30° WNW visible
28 Oct 4.6 02:44:24 10° NNE 02:49:00 48° ENE 02:49:00 48° ENE visible
28 Oct 4.6 04:26:38 10° N 04:31:28 29° WNW 04:32:02 29° WNW visible
29 Oct 4.6 02:47:07 10° NNE 02:51:36 48° ENE 02:51:36 48° ENE visible
29 Oct 4.7 04:29:24 10° N 04:34:10 28° WNW 04:34:38 28° WNW visible
30 Oct 4.6 02:49:49 10° NNE 02:54:12 48° NE 02:54:12 48° NE visible
30 Oct 4.7 04:32:10 10° N 04:36:52 27° WNW 04:37:14 27° WNW visible
31 Oct 4.6 02:52:31 10° NNE 02:56:48 48° NE 02:56:48 48° NE visible
31 Oct 4.8 04:34:55 10° N 04:39:32 26° WNW 04:39:51 26° WNW visible
01 Nov 4.6 02:55:14 10° NNE 02:59:23 47° NE 02:59:23 47° NE visible
01 Nov 4.8 04:37:42 10° N 04:42:13 25° WNW 04:42:27 25° WNW visible
